FW7570 Weather Reports


time (UTC)temp
C
wind
direction
speed
KPH
gust
KPH
rain 1hr
cm
rain 24hr
cm
rain mn
cm
humidity
%
barometer
mb
20260506070121 9 165 0.0 1.6 0.05 1.27 0.30 96 1006.0
20260506062056 8 225 0.0 3.2 0.05 1.22 0.28 96 1005.8
20260506061557 8 221 0.0 1.6 0.03 1.22 0.25 96 1005.7
20260506061057 8 212 0.0 3.2 0.03 1.22 0.25 96 1005.8
20260506060558 8 0 0.0 3.2 0.03 1.22 0.25 96 1005.8
20260506051057 9 0 0.0 1.6 0.00 1.17 0.20 96 1005.7
20260506050557 9 0 0.0 1.6 0.00 1.17 0.20 96 1005.7
20260506050104 9 157 0.0 1.6 0.00 1.17 0.20 96 1005.6
20260506045056 9 0 0.0 1.6 0.00 1.17 0.20 96 1005.7
20260506044558 9 166 0.0 3.2 0.00 1.17 0.20 96 1005.7
20260506044057 9 144 0.0 3.2 0.00 1.17 0.20 96 1005.8
20260506043557 9 155 0.0 3.2 0.00 1.17 0.20 96 1005.8
20260506043057 9 0 0.0 4.8 0.00 1.17 0.20 96 1005.8
20260506042557 9 207 0.0 4.8 0.00 1.17 0.20 96 1005.8
20260506042057 9 153 0.0 3.2 0.00 1.17 0.20 96 1005.8
20260506041619 9 0 0.0 1.6 0.00 1.17 0.20 96 1005.7
20260506041056 9 0 0.0 1.6 0.00 1.17 0.20 96 1005.9
20260506040559 9 216 0.0 1.6 0.00 1.17 0.20 96 1005.9
20260506040104 9 0 0.0 1.6 0.00 1.17 0.20 96 1005.9
20260506035558 9 154 0.0 1.6 0.00 1.17 0.20 96 1006.0
20260506035056 9 0 0.0 1.6 0.03 1.17 0.20 96 1005.9
20260506034601 9 0 0.0 1.6 0.03 1.17 0.20 96 1005.8
20260506034056 9 0 0.0 1.6 0.03 1.17 0.20 96 1006.0
20260506033557 9 0 0.0 3.2 0.03 1.17 0.20 96 1005.9
20260506033055 9 156 0.0 3.2 0.03 1.17 0.20 96 1005.8
20260506032559 10 0 0.0 1.6 0.05 1.17 0.20 96 1005.9
20260506032100 9 0 0.0 0.0 0.05 1.17 0.20 96 1006.0
20260506031600 9 206 0.0 1.6 0.05 1.17 0.20 96 1005.9
20260506031056 9 0 0.0 1.6 0.05 1.14 0.18 96 1005.9
20260506030556 9 0 0.0 1.6 0.05 1.14 0.18 96 1005.9
20260506030059 10 156 0.0 1.6 0.08 1.14 0.18 96 1006.0
20260506025601 9 0 0.0 0.0 0.08 1.14 0.18 96 1006.0
20260506025057 9 0 0.0 1.6 0.08 1.12 0.18 96 1006.0
20260506024607 9 0 0.0 1.6 0.08 1.12 0.18 96 1006.0
20260506024057 9 0 0.0 1.6 0.08 1.12 0.18 96 1006.1
20260506023557 9 0 0.0 3.2 0.08 1.12 0.18 96 1006.1
20260506023105 9 173 0.0 3.2 0.08 1.12 0.18 96 1006.1
20260506022557 9 0 0.0 3.2 0.05 1.12 0.15 96 1006.2
20260506022057 9 0 0.0 4.8 0.08 1.12 0.15 96 1006.2
20260506021557 9 167 0.0 4.8 0.08 1.12 0.15 96 1006.4
20260506021057 10 0 0.0 0.0 0.05 1.09 0.13 96 1006.5
20260506020556 9 0 0.0 0.0 0.05 1.09 0.13 96 1006.5
20260506020110 10 0 0.0 1.6 0.03 1.07 0.10 96 1006.5
20260506015556 10 0 0.0 1.6 0.03 1.07 0.10 96 1006.6
20260506015056 10 0 0.0 1.6 0.00 1.04 0.08 96 1006.6
20260506014609 10 0 0.0 1.6 0.00 1.04 0.08 96 1006.6
20260506014056 10 175 0.0 1.6 0.00 1.04 0.08 96 1006.6
20260506013556 10 0 0.0 1.6 0.00 1.04 0.08 96 1006.7
20260506013056 10 0 0.0 1.6 0.00 1.04 0.08 96 1006.7
20260506012557 10 193 0.0 4.8 0.00 1.04 0.08 96 1006.7
20260506012056 10 0 0.0 4.8 0.00 1.02 0.08 96 1006.7
20260506011619 10 192 0.0 3.2 0.00 1.02 0.08 96 1006.8
20260506011056 10 0 0.0 1.6 0.00 1.02 0.08 96 1006.8
20260506010601 10 0 0.0 3.2 0.00 1.02 0.08 96 1006.7
20260506010056 10 0 0.0 3.2 0.00 1.02 0.08 96 1006.7
20260506005556 10 0 0.0 3.2 0.00 1.02 0.08 96 1006.8
20260506005056 10 0 0.0 1.6 0.00 1.02 0.08 96 1006.8
20260506004604 10 0 0.0 3.2 0.00 1.02 0.08 96 1006.8
20260506004056 10 0 0.0 3.2 0.00 1.02 0.08 96 1006.8
20260506003556 10 0 0.0 3.2 0.00 1.02 0.08 96 1006.8
20260506003057 10 162 0.0 3.2 0.00 1.02 0.08 96 1006.9
20260506002556 10 0 0.0 1.6 0.00 1.02 0.08 96 1007.0
20260506002053 10 0 0.0 1.6 0.00 1.02 0.08 96 1007.0
20260506001601 10 0 0.0 1.6 0.00 1.02 0.08 96 1007.0
20260506001056 10 0 0.0 3.2 0.03 1.02 0.08 96 1007.1
20260506000554 10 0 0.0 3.2 0.00 1.02 0.05 96 1007.2
20260506000121 10 215 0.0 3.2 0.00 1.02 0.05 96 1007.2
20260505235555 10 0 0.0 3.2 0.00 1.02 0.05 96 1007.3
20260505235054 10 229 0.0 1.6 0.00 1.02 0.05 96 1007.4
20260505234557 10 0 0.0 1.6 0.00 1.02 0.05 96 1007.4
20260505234055 10 0 0.0 3.2 0.00 1.02 0.05 96 1007.5
20260505233555 10 0 0.0 3.2 0.00 1.02 0.05 96 1007.4
20260505233100 10 162 0.0 1.6 0.03 1.02 0.05 96 1007.5
20260505232557 10 0 0.0 1.6 0.03 1.02 0.05 96 1007.5
20260505232055 10 0 0.0 1.6 0.03 1.02 0.05 96 1007.4
20260505231609 10 0 0.0 1.6 0.05 1.02 0.05 96 1007.5
20260505231056 10 0 0.0 1.6 0.03 0.99 0.03 96 1007.5
20260505230557 10 0 0.0 1.6 0.03 0.99 0.03 96 1007.5
20260505230108 10 0 0.0 0.0 0.03 0.99 0.03 96 1007.5
20260505225559 10 0 0.0 3.2 0.03 0.99 0.03 96 1007.6
20260505225057 10 0 0.0 3.2 0.03 0.99 0.03 96 1007.6
20260505224614 10 186 0.0 3.2 0.05 0.99 0.03 96 1007.6
20260505224059 10 221 0.0 3.2 0.05 0.99 0.03 96 1007.6
20260505223600 10 0 0.0 4.8 0.05 0.99 0.03 96 1007.7
20260505223054 10 151 0.0 4.8 0.03 0.97 0.00 96 1007.6
20260505222558 10 0 0.0 4.8 0.05 0.97 0.00 96 1007.7
20260505222053 10 0 0.0 1.6 0.05 0.97 0.00 96 1007.6
20260505221600 10 142 0.0 1.6 0.05 0.94 0.00 95 1007.8
20260505221055 10 176 0.0 1.6 0.05 0.94 0.00 96 1007.8
20260505220555 10 0 0.0 3.2 0.05 0.94 0.00 95 1007.7
20260505220057 10 168 0.0 3.2 0.08 0.94 0.00 95 1007.8
20260505215556 10 216 0.0 3.2 0.08 0.94 0.94 96 1007.7
20260505215056 10 0 0.0 3.2 0.08 0.94 0.94 95 1007.8
20260505214555 10 0 0.0 4.8 0.08 0.94 0.94 95 1007.9
20260505214057 10 0 0.0 4.8 0.08 0.94 0.94 95 1007.9
20260505213558 10 0 0.0 3.2 0.08 0.94 0.94 95 1008.0
20260505213055 10 0 0.0 3.2 0.08 0.94 0.94 95 1007.9
20260505212559 10 0 0.0 3.2 0.08 0.91 0.91 95 1008.0
20260505212053 10 0 0.0 3.2 0.08 0.91 0.91 95 1008.0
20260505211556 10 0 0.0 3.2 0.08 0.89 0.89 95 1008.0
20260505211056 10 0 0.0 3.2 0.10 0.89 0.89 95 1008.0
20260505210552 10 185 0.0 4.8 0.10 0.89 0.89 95 1008.0
20260505210054 10 0 0.0 4.8 0.10 0.86 0.86 95 1008.0
20260505205557 10 0 0.0 4.8 0.10 0.86 0.86 95 1008.0
20260505205057 10 0 0.0 1.6 0.13 0.86 0.86 95 1008.1
20260505204601 10 0 0.0 3.2 0.10 0.84 0.84 95 1008.0
20260505204056 10 247 0.0 3.2 0.10 0.84 0.84 95 1008.1
20260505203556 10 0 0.0 6.4 0.10 0.84 0.84 95 1008.1
20260505203101 10 171 0.0 6.4 0.13 0.84 0.84 95 1008.2
20260505202556 10 158 1.6 6.4 0.13 0.84 0.84 95 1008.1
20260505202056 10 0 0.0 3.2 0.13 0.81 0.81 95 1008.1
20260505201554 10 0 0.0 3.2 0.10 0.79 0.79 95 1008.1
20260505201056 10 218 0.0 1.6 0.10 0.76 0.76 95 1008.2
20260505200556 10 0 0.0 1.6 0.13 0.76 0.76 95 1008.0
20260505200054 10 176 0.0 1.6 0.10 0.74 0.74 95 1008.0
20260505195558 10 146 0.0 3.2 0.13 0.74 0.74 95 1008.0
20260505195056 10 0 0.0 3.2 0.13 0.74 0.74 95 1007.9
20260505194616 10 161 0.0 4.8 0.15 0.74 0.74 95 1007.9
20260505194056 10 196 0.0 4.8 0.18 0.74 0.74 95 1008.0
20260505193557 10 167 0.0 1.6 0.18 0.71 0.71 95 1007.9
20260505193103 10 0 0.0 1.6 0.18 0.69 0.69 95 1007.9
20260505192556 10 0 0.0 3.2 0.18 0.69 0.69 95 1007.8
20260505192052 10 0 0.0 3.2 0.18 0.66 0.66 95 1007.9
20260505191607 11 0 0.0 1.6 0.18 0.66 0.66 95 1007.7
20260505191059 11 0 0.0 3.2 0.18 0.64 0.64 95 1007.9
20260505190556 11 0 0.0 3.2 0.18 0.64 0.64 95 1007.9
20260505190055 11 164 0.0 4.8 0.18 0.64 0.64 95 1007.8
20260505185556 11 191 0.0 4.8 0.18 0.61 0.61 95 1007.7
20260505185057 11 0 0.0 4.8 0.18 0.58 0.58 94 1007.8
20260505184555 11 284 0.0 4.8 0.18 0.56 0.56 95 1007.7
20260505184057 11 0 0.0 4.8 0.18 0.56 0.56 95 1007.8
20260505183556 11 0 1.6 4.8 0.18 0.53 0.53 94 1007.8
20260505183057 11 148 0.0 3.2 0.15 0.51 0.51 94 1007.7
20260505182557 11 0 0.0 3.2 0.18 0.51 0.51 94 1007.7
20260505182100 11 0 0.0 4.8 0.15 0.48 0.48 94 1007.7
20260505181556 11 146 0.0 4.8 0.15 0.46 0.46 94 1007.7
20260505181058 11 145 0.0 3.2 0.15 0.46 0.46 94 1007.8
20260505180552 11 165 0.0 3.2 0.15 0.46 0.46 94 1007.7
20260505180057 11 0 0.0 3.2 0.18 0.46 0.46 94 1007.7
20260505175555 11 0 0.0 3.2 0.15 0.46 0.43 94 1007.7
20260505175056 11 0 0.0 3.2 0.15 0.43 0.41 94 1007.8
20260505174556 11 0 0.0 1.6 0.10 0.38 0.36 94 1007.8
20260505174056 11 155 0.0 1.6 0.10 0.36 0.36 94 1007.8
20260505173557 11 0 0.0 3.2 0.13 0.36 0.36 94 1007.8
20260505173112 11 49 0.0 3.2 0.13 0.36 0.36 94 1007.8
20260505172556 11 0 0.0 3.2 0.13 0.36 0.33 94 1007.9
20260505172056 11 266 0.0 9.7 0.15 0.36 0.33 94 1007.8
20260505171620 11 0 1.6 9.7 0.15 0.33 0.30 93 1007.8
20260505171056 12 158 1.6 6.4 0.18 0.33 0.30 93 1007.8
20260505170555 12 0 0.0 6.4 0.18 0.30 0.28 93 1007.9
20260505170055 12 152 1.6 4.8 0.18 0.28 0.28 93 1007.8
20260505165557 12 0 0.0 3.2 0.18 0.36 0.28 93 1007.8
20260505165053 12 162 0.0 4.8 0.18 0.36 0.25 93 1008.0
20260505164601 12 116 0.0 4.8 0.18 0.33 0.23 93 1007.9
20260505164054 12 0 0.0 3.2 0.20 0.33 0.23 93 1007.8
20260505163553 12 174 0.0 8.0 0.20 0.30 0.20 93 1007.9
20260505163055 12 203 0.0 8.0 0.20 0.30 0.20 93 1007.8
20260505162554 12 172 0.0 4.8 0.18 0.28 0.18 92 1007.9
20260505162056 12 189 0.0 4.8 0.18 0.28 0.18 92 1007.9
20260505161557 12 0 0.0 4.8 0.15 0.25 0.15 92 1008.1
20260505161053 12 184 0.0 4.8 0.13 0.23 0.13 92 1008.0
20260505160555 12 156 0.0 4.8 0.10 0.20 0.10 91 1008.0
20260505153056 13 241 0.0 4.8 0.00 0.20 0.00 89 1008.1
20260505152554 13 0 1.6 4.8 0.00 0.20 0.00 88 1008.1
20260505152055 13 168 0.0 3.2 0.00 0.20 0.00 88 1008.1
20260505151555 13 136 0.0 3.2 0.00 0.20 0.00 88 1008.1
20260505151054 13 0 0.0 3.2 0.00 0.20 0.00 88 1008.0
20260505150553 13 266 0.0 3.2 0.00 0.20 0.00 88 1008.1
20260505150111 13 276 0.0 3.2 0.00 0.20 0.00 87 1008.2
20260505140556 15 116 0.0 6.4 0.00 0.28 0.00 86 1008.1
20260505124558 17 0 0.0 3.2 0.00 0.51 0.00 76 1008.7
20260505124056 17 219 0.0 3.2 0.00 0.51 0.00 77 1008.8
20260505123557 17 0 0.0 1.6 0.00 0.51 0.00 78 1008.6
20260505123100 17 198 0.0 1.6 0.00 0.51 0.00 79 1008.7
20260505122555 17 205 0.0 1.6 0.00 0.51 0.00 78 1008.8
20260505122054 17 0 0.0 1.6 0.00 0.51 0.00 78 1008.8
20260505121624 16 210 0.0 1.6 0.00 0.51 0.00 78 1008.8
20260505121054 16 0 0.0 1.6 0.00 0.51 0.00 79 1008.8
20260505120554 16 0 0.0 1.6 0.00 0.51 0.00 78 1008.9
20260505120053 16 0 0.0 1.6 0.00 0.51 0.00 79 1009.0
20260505115553 16 0 0.0 1.6 0.00 0.51 0.00 80 1009.0
20260505115056 16 0 0.0 1.6 0.00 0.51 0.00 81 1009.0
20260505114555 16 0 0.0 1.6 0.00 0.51 0.00 80 1009.1
20260505114056 16 0 0.0 1.6 0.00 0.51 0.00 80 1009.1
20260505113557 16 0 0.0 1.6 0.00 0.51 0.00 80 1009.2
20260505113059 16 0 0.0 1.6 0.00 0.51 0.00 80 1009.4
20260505112556 16 212 0.0 1.6 0.00 0.51 0.00 79 1009.2
20260505112053 16 0 0.0 1.6 0.00 0.51 0.00 78 1009.3
20260505111556 16 0 0.0 1.6 0.00 0.51 0.00 79 1009.4
20260505111055 16 0 0.0 1.6 0.00 0.51 0.00 79 1009.3
20260505110557 16 219 0.0 1.6 0.00 0.51 0.00 79 1009.1
20260505102055 17 211 0.0 1.6 0.00 0.51 0.00 78 1009.5
20260505101557 17 217 0.0 1.6 0.00 0.51 0.00 80 1009.6
20260505101056 16 0 0.0 1.6 0.00 0.51 0.00 83 1009.5
20260505100556 16 0 0.0 1.6 0.00 0.51 0.00 81 1009.6
20260505100136 16 0 0.0 0.0 0.00 0.51 0.00 83 1009.7
20260505095558 16 0 0.0 0.0 0.00 0.51 0.00 83 1009.6
20260505095056 16 178 0.0 0.0 0.00 0.51 0.00 84 1009.6
20260505094554 16 178 0.0 0.0 0.00 0.51 0.00 84 1009.6
20260505094052 16 0 0.0 0.0 0.00 0.51 0.00 84 1009.6
20260505093556 15 0 0.0 0.0 0.00 0.51 0.00 83 1009.7
20260505093054 15 0 0.0 0.0 0.00 0.51 0.00 83 1009.6
20260505092554 15 0 0.0 0.0 0.00 0.51 0.00 83 1009.7
20260505092055 15 0 0.0 0.0 0.00 0.51 0.00 83 1009.8
20260505091616 15 0 0.0 0.0 0.00 0.51 0.00 84 1009.8
20260505091055 15 0 0.0 3.2 0.00 0.51 0.00 84 1009.8
20260505090555 15 0 0.0 3.2 0.00 0.51 0.00 84 1009.8
20260505090101 15 203 0.0 1.6 0.00 0.51 0.00 83 1009.8
20260505085555 15 0 0.0 1.6 0.00 0.51 0.00 84 1009.8
20260505085059 15 0 0.0 1.6 0.00 0.51 0.00 84 1009.8
20260505084553 15 0 0.0 0.0 0.00 0.51 0.00 84 1009.8
20260505084056 15 0 0.0 1.6 0.00 0.51 0.00 83 1009.9
20260505083556 15 0 0.0 1.6 0.00 0.51 0.00 84 1009.7
20260505083056 15 0 0.0 1.6 0.00 0.51 0.00 83 1009.8
20260505082553 15 0 0.0 1.6 0.00 0.51 0.00 84 1009.8
20260505082054 15 0 0.0 1.6 0.00 0.51 0.00 85 1009.8
20260505081554 15 208 0.0 1.6 0.00 0.51 0.00 86 1009.8
20260505081056 14 0 0.0 1.6 0.00 0.51 0.00 86 1009.9
20260505080556 14 0 0.0 0.0 0.00 0.51 0.00 88 1009.9
20260505080054 14 0 0.0 0.0 0.00 0.51 0.00 88 1009.9
20260505075556 13 0 0.0 0.0 0.00 0.51 0.00 87 1010.0
20260505075055 13 0 0.0 0.0 0.00 0.51 0.00 88 1010.0
20260505074553 13 0 0.0 0.0 0.00 0.51 0.00 89 1010.0
20260505074058 13 0 0.0 0.0 0.00 0.51 0.00 90 1010.0
20260505073554 13 0 0.0 0.0 0.00 0.51 0.00 91 1010.0
20260505073101 13 0 0.0 0.0 0.00 0.51 0.00 91 1010.0
20260505072555 13 0 0.0 0.0 0.00 0.51 0.00 90 1010.1
20260505072056 13 0 0.0 1.6 0.00 0.51 0.00 91 1010.1
20260505071556 13 0 0.0 1.6 0.00 0.51 0.00 91 1010.1
20260505071054 13 0 0.0 1.6 0.00 0.51 0.00 91 1010.2
20260505070558 13 0 0.0 0.0 0.00 0.51 0.00 91 1010.1